Quantico, VA

9:11 PM EST on December 15, 2019 (GMT -0500)
Quantico Marine Corps Air Facility

Weather History for KNYG - October, 2019

Change the Weather History Date:

Wednesday, October 9, 2019

  Actual Average Record
Temperature  
Mean Temperature 64 °F -  
Max Temperature 72 °F 67 °F 87 °F (2017)
Min Temperature 57 °F 49 °F 31 °F (2001)
Growing Degree Days 14 (Base 50)    
Moisture  
Dew Point 50 °F    
Average Humidity 61    
Maximum Humidity 78    
Minimum Humidity 48    
Precipitation  
Precipitation 0.00 in - - ()
Sea Level Pressure  
Sea Level Pressure 30.22 in    
Wind  
Wind Speed 11 mph (NE)    
Max Wind Speed 17 mph    
Max Gust Speed -    
Visibility 10 miles    
Events      
Averages and records for this station are not official NWS values.
T = Trace of Precipitation, MM = Missing Value Source: NWS Daily Summary

Daily Weather History Graph

Daily Weather History Graph

Search for Another Location

Airport or City:

Astronomy

Oct. 09, 2019 Rise Set
Actual Time 7:12 AM EDT 6:40 PM EDT
Civil Twilight 6:45 AM EDT 7:06 PM EDT
Nautical Twilight 6:15 AM EDT 7:37 PM EDT
Astronomical Twilight 5:44 AM EDT 8:08 PM EDT
Moon 5:07 PM EDT (10/9) 3:01 AM EDT (10/9)
Length of Visible Light 12h 20m
Length of Day
11h 27m
Waxing Gibbous, 85% of the Moon is Illuminated
Oct 9
Waxing Gibbous
Oct 13
Full
Oct 21
Last Quarter
Oct 27
New
Nov 4
First Quarter

Hourly Weather History & Observations

Time (EDT) Temp. Dew Point Humidity Pressure Visibility Wind Dir Wind Speed Gust Speed Precip Events Conditions
12:56 AM 66.0 °F 46.0 °F 48% 30.19 in 10.0 mi NE 12.7 mph - N/A   Mostly Cloudy
1:56 AM 64.9 °F 45.0 °F 48% 30.19 in 10.0 mi North 9.2 mph - N/A   Mostly Cloudy
2:56 AM 63.0 °F 46.0 °F 54% 30.19 in 10.0 mi North 9.2 mph - N/A   Overcast
3:56 AM 61.0 °F 46.0 °F 58% 30.19 in 10.0 mi North 12.7 mph - N/A   Overcast
4:56 AM 59.0 °F 48.9 °F 69% 30.20 in 10.0 mi North 12.7 mph - 0.00 in   Overcast
5:56 AM 59.0 °F 48.0 °F 67% 30.22 in 10.0 mi North 8.1 mph - N/A   Mostly Cloudy
6:56 AM 57.9 °F 48.0 °F 70% 30.22 in 10.0 mi North 6.9 mph - N/A   Partly Cloudy
7:56 AM 57.9 °F 48.9 °F 72% 30.24 in 10.0 mi North 4.6 mph - N/A   Scattered Clouds
8:56 AM 60.1 °F 53.1 °F 78% 30.25 in 10.0 mi NNE 9.2 mph - N/A   Scattered Clouds
9:56 AM 64.0 °F 50.0 °F 60% 30.26 in 10.0 mi NE 10.4 mph - N/A   Partly Cloudy
10:56 AM 64.9 °F 51.1 °F 61% 30.27 in 10.0 mi NE 11.5 mph - N/A   Mostly Cloudy
11:56 AM 64.9 °F 52.0 °F 63% 30.25 in 10.0 mi ENE 9.2 mph - N/A   Mostly Cloudy
12:56 PM 68.0 °F 52.0 °F 56% 30.24 in 10.0 mi ENE 10.4 mph - N/A   Partly Cloudy
1:56 PM 70.0 °F 53.1 °F 55% 30.21 in 10.0 mi ENE 10.4 mph - N/A   Partly Cloudy
2:56 PM 72.0 °F 52.0 °F 49% 30.20 in 10.0 mi ENE 8.1 mph - N/A   Partly Cloudy
3:56 PM 72.0 °F 52.0 °F 49% 30.19 in 10.0 mi ENE 12.7 mph - N/A   Partly Cloudy
4:56 PM 71.1 °F 52.0 °F 51% 30.18 in 10.0 mi ENE 10.4 mph - N/A   Scattered Clouds
5:56 PM 70.0 °F 52.0 °F 53% 30.19 in 10.0 mi East 9.2 mph - N/A   Scattered Clouds
6:56 PM 66.9 °F 53.1 °F 61% 30.21 in 10.0 mi East 17.3 mph - N/A   Clear
7:56 PM 64.9 °F 53.1 °F 65% 30.23 in 10.0 mi East 13.8 mph - N/A   Clear
8:56 PM 63.0 °F 52.0 °F 67% 30.24 in 10.0 mi ENE 13.8 mph - N/A   Clear
9:56 PM 62.1 °F 52.0 °F 70% 30.25 in 10.0 mi East 12.7 mph - N/A   Clear
10:26 PM 63.0 °F 52.0 °F 67% 30.25 in 10.0 mi East 12.7 mph - N/A   Mostly Cloudy
10:56 PM 62.1 °F 52.0 °F 70% 30.26 in 10.0 mi East 12.7 mph - N/A   Overcast
11:56 PM 62.1 °F 51.1 °F 67% 30.27 in 10.0 mi East 12.7 mph - N/A   Mostly Cloudy